Flag for U.S.A. Weather past 2 weeks in Hudson, Wisconsin, U.S.A.

Now
22 °F

Overcast.


Feels Like: 14 °F
Forecast: 12 / 25 °F
Wind: 6 mph from South

Location: St. Paul Downtown Holman Field

Current Time: Dec 18, 2014 at 3:59:10 PM

Latest Report: Dec 18, 2014 at 2:53 PM


Visibility: 10 mi

Pressure: 30.31 "Hg

Humidity: 78%

Dew point: 16 °F

Location of HudsonLocation

Historic Weather in Hudson — Graph

°F

Hudson temperature yesterday

Maximum temperature yesterday: 19 °F (at 1:53 PM)
Minimum temperature yesterday: 11 °F (at 6:53 AM)
Average temperature yesterday: 15 °F

Past Weeks' High & Low Weather Summary

 TemperatureHumidityPressure
High48 °F (Dec 14, 2:53 PM)100% (Dec 8, 12:53 AM)30.71 "Hg (Dec 8, 12:53 AM)
Low11 °F (Dec 3, 10:53 PM)43% (Dec 4, 1:53 PM)29.69 "Hg (Dec 15, 1:53 PM)
Average29 °F85%30.23 "Hg
* Reported Dec 3 1:53 PM — Dec 18 1:53 PM, Hudson, Weather by CustomWeather, © 2014

Note: Actual official high and low records may vary slightly from our data, if they occured in-between our weather recording intervals... More about our weather records

Advertising

Hudson weather history for previous 24 hours

 ConditionsComfort  
Time TempWeatherWind HumidityBarometerVisibility
1:53 PM
Dec 18
22 °FOvercast.8 mph78%30.31 "Hg10 mi
12:53 PM21 °FOvercast.5 mph85%30.33 "Hg9 mi
11:53 AM21 °FIce fog.6 mph85%30.35 "Hg4 mi
10:53 AM21 °FOvercast.5 mph81%30.36 "Hg8 mi
9:53 AM21 °FOvercast.3 mph81%30.37 "Hg10 mi
8:53 AM20 °FOvercast.3 mph85%30.36 "Hg10 mi
7:53 AM20 °FOvercast.No wind82%30.35 "Hg10 mi
6:53 AM18 °FOvercast.No wind84%30.34 "Hg10 mi
5:53 AM17 °FOvercast.No wind80%30.35 "Hg10 mi
4:53 AM16 °FOvercast.3 mph80%30.36 "Hg10 mi
3:53 AM16 °FOvercast.No wind84%30.38 "Hg10 mi
2:53 AM15 °FOvercast.5 mph83%30.39 "Hg10 mi
1:53 AM13 °FOvercast.3 mph84%30.38 "Hg10 mi
12:53 AM14 °FClear.No wind80%30.39 "Hg10 mi
11:53 PM
Dec 17
13 °FClear.No wind88%30.38 "Hg10 mi
10:53 PM15 °FClear.No wind83%30.38 "Hg10 mi
9:53 PM14 °FClear.No wind87%30.38 "Hg10 mi
8:53 PM16 °FClear.No wind77%30.39 "Hg10 mi
7:53 PM16 °FClear.No wind74%30.37 "Hg10 mi
6:53 PM17 °FClear.No wind70%30.37 "Hg10 mi
5:53 PM17 °FPassing clouds.3 mph70%30.37 "Hg10 mi
4:53 PM18 °FOvercast.6 mph71%30.37 "Hg10 mi
3:53 PM18 °FOvercast.7 mph71%30.36 "Hg10 mi
Weather by CustomWeather, © 2014

See weather overviewHow to use our weather pages